Time,B instrument,Bx,By,Bz,sigma B,Ion instrument,Status,Tp_par,Tp_perp,carrot,r_sun,clat,clong,earth_he_angle,n_p,vp_x,vp_y,vp_z,vth_p_par,vth_p_perp
1980-08-12 00:58:04,-1,nan,nan,nan,nan,1,3,nan,nan,1698,0.95292968,1.5204697,330.94556,104.21899,nan,439.307,11.3724,15.2019,nan,nan
1980-08-12 01:08:52,1,1.85,-5.2,4.6,0.180278,1,1,79124.3,96209.6,1698,0.95295197,1.5198336,330.84641,104.2175,3.60018,440.466,20.581,-4.64331,36.1421,39.8535
1980-08-12 01:19:40,1,3.1,-4.7,2.5,0.3,1,1,103920.0,83031.8,1698,0.95297647,1.5191336,330.74319,104.21585,3.41972,432.815,10.0725,20.6995,41.4197,37.0237
1980-08-12 01:30:28,1,1.3,-3.1,-2.25,0.229129,1,1,59434.6,66989.0,1698,0.95300102,1.5184336,330.64389,104.2142,3.46861,445.164,-21.5434,37.6468,31.324,33.2552
1980-08-12 01:41:16,1,4.4,-2.8,3.15,0.229129,1,1,73842.2,108351.0,1698,0.95302552,1.5177336,330.54459,104.21255,3.50851,407.176,-13.7041,0.950094,34.9148,42.2936
1980-08-12 01:52:04,1,2.6,-1.6,-1.6,0.2,1,1,59445.4,89910.3,1698,0.95305002,1.5170336,330.44138,104.21091,3.50986,417.767,-10.4857,35.9493,31.3269,38.5268
1980-08-12 02:02:52,1,3.0,-2.7,-0.15,0.35,1,1,75823.0,85081.3,1698,0.95307231,1.5163975,330.34222,104.20941,4.00857,421.19,-8.23734,31.5922,35.3801,37.4779
1980-08-12 02:13:40,1,-0.3,0.1,-3.2,0.0,1,1,56177.8,94747.8,1698,0.95309681,1.5156975,330.23901,104.20776,4.01203,452.548,-33.5495,40.0316,30.4537,39.5496
1980-08-12 02:24:28,1,1.75,-0.3,-2.3,0.460977,1,1,115920.0,104425.0,1698,0.95312124,1.5149984,330.13971,104.20612,4.18132,435.088,-20.298,43.5144,43.7459,41.5202
1980-08-12 02:35:16,1,3.5,-2.0,0.05,1.00125,1,1,81289.8,101774.0,1698,0.95314574,1.5142984,330.04044,104.20448,3.50753,438.497,-31.3082,41.55,36.6333,40.9899
1980-08-12 02:46:04,1,2.5,0.35,-1.25,0.234521,1,1,85553.1,85390.1,1698,0.95317018,1.5135984,329.93723,104.20284,4.05021,427.561,-40.7075,35.2251,37.5817,37.5458
1980-08-12 03:21:46,-1,nan,nan,nan,nan,1,4,nan,nan,1698,0.9532479,1.5113726,329.60385,104.19759,nan,nan,nan,nan,nan,nan
1980-08-12 03:27:10,1,1.05,1.6,-2.075,0.366572,1,1,73950.2,80883.5,1698,0.95326126,1.5109911,329.55215,104.19669,4.05708,442.488,-47.818,37.6946,34.9404,36.5416
1980-08-12 03:32:34,1,1.475,2.05,-1.65,0.408503,1,1,99481.0,63054.8,1698,0.95327234,1.5106726,329.50455,104.19594,3.99358,442.776,-42.7585,37.2117,40.5255,32.2639
1980-08-12 03:34:40,1,0.975,2.9,-1.8,0.349106,1,1,66252.3,78293.6,1698,0.95327675,1.5105457,329.48471,104.19563,4.13437,436.207,-50.5468,29.8248,33.0718,35.9518
1980-08-12 03:40:04,1,-0.65,2.925,-2.175,0.732291,1,1,76986.8,77767.0,1698,0.9532901,1.5101643,329.43301,104.19473,4.02634,440.444,-49.0948,35.1029,35.6505,35.8307
1980-08-12 06:10:04,-1,nan,nan,nan,nan,1,3,nan,nan,1698,0.95362204,1.5006256,328.03162,104.17223,nan,396.408,-33.5191,35.5894,nan,nan
1980-08-12 06:15:28,-1,nan,nan,nan,nan,1,3,nan,nan,1698,0.95363307,1.500308,327.98398,104.17148,nan,400.263,-2.92596,25.2005,nan,nan
1980-08-12 06:29:16,-1,nan,nan,nan,nan,1,3,nan,nan,1698,0.95366395,1.4994173,327.85297,104.16936,nan,407.792,13.9824,-0.754242,nan,nan
1980-08-12 06:31:40,1,3.925,2.025,-0.175,0.72844,1,1,57054.9,73250.8,1698,0.95366836,1.4992905,327.83313,104.16907,3.67991,400.79,-60.2545,37.7643,30.6905,34.7748
1980-08-12 06:37:04,-1,nan,nan,nan,nan,1,3,nan,nan,1698,0.95368159,1.498909,327.78143,104.16815,nan,391.515,-4.70423,23.1271,nan,nan
1980-08-12 06:42:28,-1,nan,nan,nan,nan,1,3,nan,nan,1698,0.95369262,1.4985914,327.72992,104.1674,nan,406.062,8.83763,32.2098,nan,nan
1980-08-12 06:58:40,1,2.55,2.8,-1.6,0.25,1,1,63426.9,77118.7,1698,0.9537279,1.4975739,327.57907,104.16499,4.26729,421.701,-47.1149,44.4443,32.359,35.6811
1980-08-12 07:04:04,1,1.975,3.15,-1.825,0.454148,1,1,73341.4,63989.0,1698,0.95374107,1.4971924,327.52737,104.16409,4.04437,425.655,-46.8243,45.3747,34.7963,32.502
1980-08-12 07:09:28,1,3.475,1.95,-1.7,0.290474,1,1,66979.3,75716.8,1698,0.9537521,1.4968748,327.47977,104.16335,4.42591,412.967,-43.6629,42.714,33.2528,35.3553
1980-08-12 07:14:52,1,2.7,-4.73333,0.166667,0.794425,1,1,78497.8,94230.8,1698,0.95376307,1.4965563,327.42822,104.16258,4.03737,412.348,4.71389,44.5731,35.9987,39.4416
1980-08-12 07:20:16,1,3.225,-4.675,-0.3,0.598957,1,1,70432.6,73581.1,1698,0.9537763,1.4961758,327.37653,104.16168,3.80053,415.785,12.3476,42.8191,34.0993,34.8531
1980-08-12 07:25:40,1,2.1,-5.725,0.65,0.940412,1,1,66399.9,98201.2,1698,0.95378727,1.4958572,327.32892,104.16093,4.37158,413.584,12.673,36.8535,33.1087,40.2639
1980-08-12 07:31:04,1,1.7,-6.3,1.1,0.282843,1,1,86370.9,99801.3,1698,0.9538005,1.4954758,327.27722,104.16003,4.47268,426.454,18.8237,19.1166,37.7608,40.5907
1980-08-12 07:36:28,1,1.6,-6.0,1.38778e-17,0.412311,1,1,56298.0,67425.1,1698,0.95381153,1.4951582,327.22568,104.15927,3.37152,422.942,18.8878,32.4332,30.4863,33.3633
1980-08-12 07:41:52,1,2.125,-5.425,5.4,0.183712,1,1,54795.8,73626.9,1698,0.95382249,1.4948406,327.17416,104.15852,4.02129,412.899,7.51635,-7.49158,30.0768,34.8639
1980-08-12 07:47:16,1,2.1,-5.93333,4.96667,0.253859,1,1,63048.5,79967.4,1698,0.95383573,1.4944592,327.12637,104.15762,4.06746,412.638,21.3521,-8.49315,32.2623,36.3341
1980-08-12 07:52:40,1,2.1,-6.0,3.5,0.282843,1,1,69614.1,84234.5,1698,0.95384669,1.4941416,327.07483,104.15686,4.20118,409.066,18.8809,11.9491,33.9005,37.2909
1980-08-12 07:58:04,1,-0.9,-6.875,2.575,0.780224,1,1,51607.8,73102.5,1698,0.95385993,1.4937601,327.02316,104.15596,3.7442,443.509,26.7521,11.898,29.1888,34.7395
1980-08-12 08:03:28,1,2.175,-5.375,4.45,1.88182,1,1,84043.6,82882.4,1698,0.95387089,1.4934425,326.97552,104.15521,3.7938,423.178,19.1743,15.2289,37.2486,36.9904
1980-08-12 08:08:52,1,5.4,-0.5,4.26667,0.639444,1,1,40944.4,98831.7,1698,0.95388186,1.493124,326.92401,104.15446,4.63184,378.168,-18.7805,14.8856,25.9989,40.393
1980-08-12 08:14:16,1,4.36667,-3.93333,3.6,0.253859,1,1,41798.5,88028.9,1698,0.95389503,1.4927435,326.87231,104.15355,3.93813,393.025,11.1849,0.425491,26.2687,38.1216
1980-08-12 08:19:40,1,5.16667,-3.13333,3.6,0.371184,1,1,56434.8,104043.0,1698,0.953906,1.492425,326.82468,104.1528,4.09977,380.976,-5.9584,7.03895,30.5233,41.4442
1980-08-12 08:25:04,1,5.7,-1.9,2.66667,0.329983,1,1,58760.6,96382.4,1698,0.95391917,1.4920444,326.77301,104.1519,3.93847,379.564,-18.1648,15.7263,31.1459,39.8893
1980-08-12 08:30:28,1,4.03333,-4.43333,2.8,0.194365,1,1,37730.8,68366.0,1698,0.9539302,1.4917269,326.72147,104.15115,3.12888,388.152,9.41599,16.0545,24.9578,33.5953
1980-08-12 08:35:52,1,4.625,-2.425,1.35,1.21912,1,1,53956.2,100681.0,1698,0.95394117,1.4914083,326.67383,104.15039,3.93713,378.405,-17.6018,26.8183,29.8455,40.7691
1980-08-12 08:41:16,1,4.125,3.125,4.7,0.416833,1,1,67657.6,78960.6,1698,0.95395434,1.4910278,326.62216,104.14949,3.84389,385.775,-67.2071,-0.426807,33.4207,36.1047
1980-08-12 08:46:40,1,4.7,-4.0,3.06667,0.188562,1,1,36987.2,76121.4,1698,0.95396531,1.4907093,326.57062,104.14874,3.45899,382.589,1.88004,12.4598,24.7106,35.4496
1980-08-12 08:52:04,1,3.8,-4.13333,2.06667,1.25344,1,1,58730.1,79262.7,1698,0.95397848,1.4903288,326.51892,104.14783,3.49617,402.295,15.2933,28.4605,31.1378,36.1737
1980-08-12 08:57:28,1,2.85,-5.625,1.975,0.843356,1,1,61763.8,74642.6,1698,0.95398945,1.4900103,326.47131,104.14708,3.42093,412.183,19.0471,28.6356,31.9319,35.1036
1980-08-12 09:02:52,1,3.0,-5.7,0.966667,0.188562,1,1,58453.0,79604.9,1698,0.95400041,1.4896927,326.41977,104.14633,3.74966,409.677,20.8982,24.9312,31.0643,36.2517
1980-08-12 09:08:16,1,4.0,-4.76667,3.06667,0.773161,1,1,52215.9,72724.8,1698,0.95401359,1.4893112,326.36807,104.14542,3.48092,394.268,13.6417,15.9644,29.3602,34.6497
1980-08-12 09:13:40,1,3.95,-5.0,2.875,0.569539,1,1,45470.6,76571.4,1698,0.95402449,1.4889936,326.32047,104.14467,3.76765,395.809,14.174,12.6938,27.3983,35.5542
1980-08-12 09:19:04,1,3.55,-5.15,3.425,0.664737,1,1,56140.1,81478.7,1698,0.95403767,1.4886131,326.26877,104.14377,4.18998,400.494,12.8264,9.40077,30.4435,36.6758
1980-08-12 09:24:28,1,1.925,-5.9,5.075,0.422788,1,1,38740.6,67430.5,1698,0.95404863,1.4882946,326.21722,104.14301,3.50735,406.602,16.0486,-10.9346,25.2895,33.3646
1980-08-12 09:29:52,1,3.16667,-5.63333,4.43333,0.282843,1,1,47172.6,71219.7,1698,0.95405954,1.487977,326.16962,104.14226,3.68761,400.176,14.9403,-4.61486,27.9063,34.2893
1980-08-12 09:35:16,1,3.0,-5.7,0.966667,0.188562,1,1,43260.2,81177.4,1698,0.95407271,1.4875956,326.11792,104.14136,3.62786,402.191,14.7352,30.9886,26.7241,36.6079
1980-08-12 09:40:40,1,-0.05,-5.6,7.0,0.259808,1,1,50512.0,84360.7,1698,0.95408368,1.487278,326.06638,104.14059,3.63433,427.453,15.5104,-20.6974,28.8772,37.3188
1980-08-12 09:46:04,1,-0.175,-4.75,7.6,0.44088,1,1,45621.2,88577.5,1698,0.95409679,1.4868965,326.01471,104.13969,4.45779,428.879,1.94432,-23.9162,27.4436,38.2401
1980-08-12 09:51:28,1,0.325,-6.75,5.0,0.338194,1,1,82438.1,104317.0,1698,0.95410776,1.4865789,325.96707,104.13895,4.47751,423.963,19.7123,-5.96459,36.8911,41.4988
1980-08-12 09:56:52,1,-1.025,-5.925,7.0,0.372492,1,1,66890.9,82286.0,1698,0.95411873,1.4862614,325.91553,104.13818,3.80162,434.128,17.074,-18.9139,33.2309,36.8571
1980-08-12 10:02:16,1,-1.375,-5.85,6.85,0.363146,1,1,52226.9,78277.7,1698,0.95413184,1.4858799,325.86386,104.13728,3.60284,436.298,12.6002,-22.9416,29.3633,35.9482
1980-08-12 10:07:40,1,-0.275,-5.7,7.1,0.334477,1,1,68556.7,86469.8,1698,0.95414275,1.4855623,325.81622,104.13652,4.13848,428.748,14.0819,-21.3623,33.6421,37.7825
1980-08-12 10:13:04,1,-1.375,-5.725,7.125,0.552834,1,1,43826.7,82892.2,1698,0.95415586,1.4851818,325.76453,104.13562,3.62702,440.135,11.8191,-28.6112,26.8984,36.9926
1980-08-12 10:18:28,1,-0.5,-7.3,4.63333,0.249444,1,1,56540.3,91061.3,1698,0.95416683,1.4848633,325.71298,104.13486,4.06718,425.454,27.2044,-2.94129,30.5518,38.7726
1980-08-12 10:23:52,1,0.6,-6.375,5.3,0.34187,1,1,44286.7,82875.5,1698,0.95417774,1.4845457,325.66537,104.13411,3.52769,416.455,23.1945,-13.0526,27.0392,36.9889
1980-08-12 10:29:16,1,-0.6,-5.5,7.3,0.223607,1,1,53602.4,84079.0,1698,0.95419085,1.4841652,325.61368,104.13319,3.84771,433.585,11.4242,-29.4057,29.7475,37.2565
1980-08-12 10:34:40,1,0.65,-6.1,6.0,0.55,1,1,42847.7,85377.1,1698,0.95420182,1.4838476,325.56213,104.13245,3.82591,419.887,17.4076,-18.6474,26.5963,37.543
1980-08-12 10:40:04,1,0.4,-6.675,5.3,0.258602,1,1,60155.1,72559.2,1698,0.95421493,1.4834661,325.51047,104.13155,4.03726,420.074,25.1102,-9.5512,31.5133,34.6102
1980-08-12 10:45:28,1,1.4,-6.625,4.4,0.549432,1,1,50433.1,82098.0,1698,0.95422584,1.4831486,325.46283,104.13078,3.90569,410.354,19.9559,-12.7472,28.8547,36.8149
1980-08-12 10:50:52,1,0.925,-6.45,5.7,0.253722,1,1,50799.0,76971.1,1698,0.95423681,1.482831,325.41129,104.13004,3.81879,417.757,23.0729,-12.108,28.9591,35.6469
1980-08-12 10:58:40,-1,nan,nan,nan,nan,1,4,nan,nan,1698,0.95425427,1.4823227,325.33975,104.12881,nan,nan,nan,nan,nan,nan
1980-08-12 11:04:04,-1,nan,nan,nan,nan,1,3,nan,nan,1698,0.95426738,1.4819412,325.28809,104.12791,nan,413.961,21.048,-12.0572,nan,nan
1980-08-12 11:09:28,1,-1.225,-6.3,5.675,0.297909,1,1,49492.3,86682.3,1698,0.95427829,1.4816236,325.23654,104.12715,3.85006,427.038,16.1791,-24.9708,28.5843,37.8288
1980-08-12 11:12:28,1,0.566667,-5.76667,7.0,0.253859,1,1,49326.1,85019.2,1698,0.95428485,1.4814329,325.20874,104.12671,3.92815,420.728,14.2396,-28.1205,28.5362,37.4642
1980-08-12 11:17:52,1,1.275,-5.825,5.925,0.667551,1,1,52482.3,79869.9,1698,0.95429575,1.4811153,325.1611,104.12595,4.20021,407.535,16.6568,-12.7891,29.435,36.3119
1980-08-12 11:23:16,1,3.65,-5.625,3.775,0.535023,1,1,58843.8,86540.9,1698,0.95430881,1.4807348,325.10944,104.12505,4.41493,393.457,18.4027,17.8194,31.1679,37.798
1980-08-12 11:28:40,1,3.05,-5.25,5.4,0.67082,1,1,31586.4,84513.9,1698,0.95431972,1.4804173,325.05789,104.12428,3.76796,404.152,10.4616,-23.9701,22.8354,37.3527
1980-08-12 11:34:04,1,1.6,-3.325,7.8,2.17184,1,1,64616.8,91439.1,1698,0.95433283,1.4800358,325.0062,104.12338,3.84476,410.859,-20.843,-40.2602,32.6611,38.8529
1980-08-12 11:39:28,1,0.725,-5.625,6.475,0.972433,1,1,51550.5,78635.7,1698,0.95434374,1.4797182,324.95856,104.12262,3.66146,404.931,14.6866,-15.2917,29.1726,36.0303
1980-08-12 11:44:52,1,0.6,-6.7,4.0,0.2,1,1,59647.9,78934.0,1698,0.95435464,1.4794006,324.90704,104.12187,4.21551,425.3,27.7533,3.869,31.3802,36.0986
1980-08-12 11:50:16,1,-0.3,-6.75,4.5,0.507445,1,1,55429.7,91937.8,1698,0.95436776,1.4790201,324.85535,104.12097,4.09133,429.194,25.574,-4.32107,30.2503,38.9588
1980-08-12 11:55:40,1,-0.975,-6.775,3.475,0.419076,1,1,61932.4,85239.9,1698,0.95437866,1.4787025,324.80771,104.12021,4.48303,439.559,27.3686,6.70777,31.9755,37.5128
1980-08-12 12:01:04,1,-1.475,-6.65,1.425,0.388909,1,1,114519.0,93301.4,1698,0.95439172,1.4783211,324.75604,104.11931,5.19691,428.172,23.2051,24.9044,43.4807,39.2466
1980-08-12 12:06:28,1,-0.225,-6.425,1.2,0.888116,1,1,120073.0,105528.0,1698,0.95440263,1.4780035,324.7045,104.11855,5.28579,432.435,4.73564,60.2793,44.5226,41.739
1980-08-12 12:11:52,1,-2.05,-6.9,3.7,0.563471,1,1,95633.3,85871.3,1698,0.95441347,1.4776859,324.65686,104.1178,3.65584,445.815,18.4411,-8.28203,39.734,37.6515
1980-08-12 12:17:16,1,-2.75,-5.5,0.55,0.938083,1,1,81790.9,99892.9,1698,0.95442653,1.4773054,324.60516,104.11688,4.50293,447.596,20.3037,35.349,36.746,40.6093
1980-08-12 12:22:40,1,2.53333,-3.83333,-1.13333,0.258199,1,1,72853.5,112071.0,1698,0.95443743,1.4769878,324.55365,104.11613,4.59723,403.234,0.528359,47.8656,34.6803,43.0135
1980-08-12 12:28:04,1,3.6,-3.375,-1.4,0.396074,1,1,51802.4,91153.8,1698,0.95445049,1.4766064,324.50195,104.11522,4.06102,391.739,-1.13649,46.196,29.2437,38.7923
1980-08-12 12:33:28,1,4.2,-2.2,-1.7,0.0,1,1,50440.4,100268.0,1698,0.9544614,1.4762888,324.45432,104.11447,4.2102,393.213,-12.218,49.7311,28.8567,40.6854
1980-08-12 12:38:52,1,3.86667,-2.83333,-1.43333,0.270801,1,1,55464.5,101289.0,1698,0.95447224,1.4759712,324.40277,104.11371,4.13096,399.964,1.12429,50.0288,30.2597,40.8921
1980-08-12 12:44:16,1,2.36667,-2.26667,-2.6,0.210819,1,1,82192.8,104576.0,1698,0.9544853,1.4755907,324.3511,104.11281,4.40113,413.734,-10.139,59.1333,36.8362,41.5502
1980-08-12 12:59:16,-1,nan,nan,nan,nan,1,4,nan,nan,1698,0.95451796,1.474638,324.2121,104.11053,nan,nan,nan,nan,nan,nan
1980-08-12 13:10:04,-1,nan,nan,nan,nan,1,3,nan,nan,1698,0.95454186,1.4739399,324.11279,104.10887,nan,399.827,-4.76192,48.5567,nan,nan
1980-08-12 13:20:52,1,4.8,-1.0,0.3,0.0,1,1,34354.1,96230.3,1698,0.95456356,1.4733047,324.0097,104.10736,4.21325,376.969,-6.56491,0.137874,23.8148,39.8579
1980-08-12 13:31:40,1,5.25,1.5,1.1,0.438748,1,1,59972.0,73831.4,1698,0.95458746,1.4726057,323.9104,104.1057,4.4836,381.61,-50.5888,24.2855,31.4653,34.9123
1980-08-12 13:38:17,1,5.4,0.0,5.8,0.2,1,1,56168.5,87705.8,1698,0.95460266,1.4721613,323.84683,104.10463,4.09696,380.938,-24.176,-18.9893,30.4512,38.0515
1980-08-12 13:49:05,1,5.0,0.5,0.3,0.0,1,1,52805.6,78182.5,1698,0.95462656,1.4714632,323.7475,104.10297,4.03621,380.202,-28.7675,34.6518,29.5255,35.9263
1980-08-12 13:59:53,1,5.8,-0.7,4.4,0.0,1,1,42314.9,76039.9,1698,0.95464826,1.4708281,323.64832,104.10144,4.32013,373.372,-23.0002,3.56292,26.4305,35.4306
1980-08-12 14:10:41,1,5.5,-1.8,2.8,0.0,1,1,68711.9,86586.8,1699,0.95469028,1.2705992,323.47266,104.02734,4.38384,375.675,-7.16397,19.6475,33.6801,37.808
1980-08-12 14:18:09,-1,nan,nan,nan,nan,1,4,nan,nan,1698,0.95468944,1.4696217,323.47748,104.09857,nan,nan,nan,nan,nan,nan
1980-08-12 14:32:17,1,1.95,-1.55,-2.65,0.455522,1,1,71199.1,85368.1,1698,0.95471978,1.4687328,323.34256,104.09645,4.43467,417.333,-15.8059,57.9584,34.2843,37.541
1980-08-12 17:10:58,-1,nan,nan,nan,nan,1,3,nan,nan,1698,0.9550612,1.458703,321.86154,104.07248,nan,417.335,28.3149,25.2527,nan,nan
1980-08-12 17:54:10,-1,nan,nan,nan,nan,1,3,nan,nan,1698,0.95515591,1.4559116,321.46033,104.06578,nan,395.941,-13.2984,-34.8565,nan,nan
1980-08-12 18:37:22,-1,nan,nan,nan,nan,1,4,nan,nan,1698,0.9552483,1.4531832,321.05536,104.05925,nan,nan,nan,nan,nan,nan
1980-08-12 19:20:34,-1,nan,nan,nan,nan,1,3,nan,nan,1698,0.95534056,1.4504547,320.65036,104.0527,nan,396.911,-11.7816,39.6378,nan,nan
1980-08-12 21:21:40,-1,nan,nan,nan,nan,1,4,nan,nan,1698,0.95559943,1.4427795,319.52255,104.03426,nan,nan,nan,nan,nan,nan
1980-08-12 21:24:22,1,0.475,-2.8,-3.2,0.277263,1,1,66548.8,99738.9,1698,0.9556058,1.4425898,319.49475,104.0338,4.52606,439.079,-2.61132,45.2777,33.1458,40.578
1980-08-12 21:26:11,1,2.75,-1.175,-2.8,0.478931,1,1,59652.8,104345.0,1699,0.95562685,1.2416928,319.40652,103.96121,4.57908,399.26,-4.05716,41.102,31.3815,41.5044
1980-08-12 21:27:04,1,2.5,-1.7,-2.46667,0.249444,1,1,74310.7,93041.7,1698,0.95561224,1.442399,319.47086,104.03334,4.5382,427.818,8.1178,44.3738,35.0254,39.1919
1980-08-12 21:28:54,1,2.5,-1.9,-2.1,0.360555,1,1,63643.8,120646.0,1698,0.95561433,1.4423361,319.45508,104.03319,5.18653,395.016,0.655743,36.4377,32.4142,44.6287
1980-08-12 21:31:36,1,-0.1,-5.46667,1.96667,0.581187,1,1,103592.0,119883.0,1698,0.95562077,1.4421453,319.42728,104.03273,5.05125,417.852,38.4149,1.20106,41.3544,44.4874
1980-08-12 21:34:18,1,2.96667,-3.9,-0.4,0.736357,1,1,94172.3,107817.0,1698,0.95562714,1.4419556,319.40338,104.03227,5.06124,405.337,15.2982,28.2033,39.4293,42.1892
1980-08-12 21:37:00,1,1.43333,0.133333,-2.83333,0.282843,1,1,67430.5,117854.0,1698,0.95563352,1.4417648,319.37949,104.03181,4.54243,408.261,-15.4689,42.3439,33.3646,44.1093
1980-08-12 21:39:42,1,1.15,1.075,-3.15,0.389711,1,1,63784.8,119389.0,1698,0.95563781,1.441638,319.35184,104.03151,4.74114,414.02,-24.8142,46.7367,32.4501,44.3955
1980-08-12 21:42:24,1,1.55,0.575,-3.0,0.386491,1,1,69072.8,134898.0,1698,0.95564419,1.4414482,319.32794,104.03105,5.09531,411.212,-18.2011,44.2503,33.7685,47.1911
1980-08-12 21:45:06,1,0.2,0.525,-3.2,0.506828,1,1,67008.0,123406.0,1698,0.95565063,1.4412575,319.30014,104.03059,5.0564,421.095,-19.8719,42.9879,33.2599,45.1364
1980-08-12 21:47:48,1,1.175,-0.7,-3.125,0.410792,1,1,52770.7,113655.0,1698,0.95565486,1.4411306,319.2764,104.03029,4.71932,405.297,-0.65937,40.7179,29.5158,43.3164
1980-08-12 21:50:30,1,2.05,-0.375,-2.5,0.392906,1,1,61230.4,120603.0,1698,0.9556613,1.4409409,319.2525,104.02983,4.87626,401.805,-6.4055,41.2178,31.7937,44.6207
1980-08-12 21:53:12,1,1.475,-0.9,-3.1,0.303109,1,1,55353.6,115053.0,1698,0.95566767,1.4407501,319.2247,104.02937,4.92496,408.051,-8.44296,41.8373,30.2295,43.582
1980-08-12 21:55:54,1,2.225,-2.475,-2.0,0.322102,1,1,62555.7,115164.0,1698,0.95567197,1.4406233,319.20096,104.02907,4.63174,403.647,9.54621,37.1869,32.136,43.6029
1980-08-12 21:58:36,1,2.525,-1.15,-2.4,0.64372,1,1,70559.2,106586.0,1698,0.95567834,1.4404335,319.17706,104.02861,4.65836,403.457,-5.87743,43.0418,34.1299,41.9478
1980-08-12 22:01:18,1,3.96667,-1.26667,-0.633333,0.305505,1,1,82893.1,116147.0,1698,0.95568472,1.4402428,319.14926,104.02815,5.3988,387.955,-5.45397,30.6121,36.9928,43.7887
1980-08-12 22:04:00,1,3.6,1.25,-1.4,0.295804,1,1,83370.3,119264.0,1698,0.9556911,1.440053,319.12537,104.02769,5.37449,389.959,-21.6821,33.8331,37.0991,44.3724
1980-08-12 23:16:34,-1,nan,nan,nan,nan,1,3,nan,nan,1698,0.9558444,1.4354877,318.44638,104.01669,nan,414.631,29.1193,-23.6429,nan,nan
1980-08-12 23:19:16,1,-0.933333,-5.2,6.06667,0.42947,1,1,71918.2,125643.0,1698,0.95585078,1.435298,318.42249,104.01624,5.33845,419.362,30.314,-24.8137,34.457,45.5436
1980-08-12 23:21:58,1,1.5,-5.2,5.4,0.556776,1,1,70124.8,143231.0,1698,0.95585501,1.4351711,318.39874,104.01593,5.34368,401.926,35.2241,-21.4138,34.0246,48.6268
1980-08-12 23:24:40,1,-1.13333,-6.13333,4.06667,0.2,1,1,95963.5,126898.0,1698,0.95586139,1.4349804,318.37094,104.01547,5.70401,419.93,37.1366,-14.1395,39.8026,45.7704
1980-08-12 23:27:24,1,-0.275,-6.2,3.4,0.389711,1,1,68248.8,111976.0,1698,0.95586777,1.4347906,318.34705,104.01501,5.25908,415.523,43.9246,-14.7359,33.5665,42.9953
1980-08-12 23:30:06,1,-0.766667,-6.36667,2.36667,0.282843,1,1,82158.4,105468.0,1698,0.95587415,1.4346008,318.32315,104.01456,4.57153,413.078,35.585,-6.98078,36.8285,41.7272
1980-08-12 23:32:48,1,1.1,-5.7,1.8,0.0,1,1,85657.3,115564.0,1698,0.95587838,1.434474,318.2955,104.01424,4.44939,396.375,41.7202,-5.70777,37.6045,43.6787
1980-08-12 23:35:30,1,1.8,-4.75,4.4,0.278388,1,1,91524.4,131518.0,1698,0.95588475,1.4342833,318.27161,104.01378,5.30594,393.322,32.8938,-21.308,38.8711,46.5963
1980-08-12 23:38:12,1,0.875,-4.75,4.65,0.454835,1,1,85469.7,139711.0,1698,0.95589113,1.4340935,318.24771,104.01332,5.23224,401.75,34.8775,-18.3933,37.5633,48.0256
1980-08-12 23:40:54,1,0.4,-5.1,2.63333,0.188562,1,1,131902.0,137195.0,1698,0.95589536,1.4339666,318.22006,104.01302,5.53316,410.293,33.211,-4.47143,46.6641,47.5913
1980-08-12 23:49:00,1,0.2,-5.0,5.125,0.609816,1,1,79067.7,137418.0,1699,0.95593071,1.2322216,318.07224,103.93942,4.88085,422.352,29.5686,-27.5176,36.1291,47.6299
1980-08-12 23:49:52,-1,nan,nan,nan,nan,1,4,nan,nan,1698,0.9559145,1.4333963,318.13666,104.01164,nan,nan,nan,nan,nan,nan
1980-08-12 23:52:34,1,-1.8,-5.96667,4.13333,0.24037,1,1,123071.0,125435.0,1698,0.95592082,1.4332056,318.11276,104.01118,5.31938,421.146,21.5606,-34.482,45.0751,45.5058
1980-08-12 23:52:35,1,-1.8,-5.96667,4.13333,0.24037,1,1,78892.1,104344.0,1698,0.95591873,1.4332695,318.11292,104.01134,4.90324,422.541,32.2633,-11.9327,36.089,41.5041
1980-08-12 23:54:24,1,-1.075,-5.75,4.55,0.884237,1,1,84227.4,131865.0,1698,0.95592511,1.4330788,318.09293,104.01088,5.17861,413.854,26.9717,-28.0856,37.2893,46.6576
1980-08-12 23:57:06,1,0.566667,-5.46667,5.06667,0.305505,1,1,84585.3,120609.0,1698,0.95593148,1.432889,318.06903,104.01042,4.78737,425.312,29.7516,-23.4582,37.3685,44.6219
1980-08-12 23:59:48,-1,nan,nan,nan,nan,1,3,nan,nan,1698,0.95593572,1.4327621,318.04529,104.01012,nan,418.765,37.2496,-11.0338,nan,nan
